TURKSAT 3A

Last updated on Wed Sep 09 2026 00:02:58 GMT+0000 (Coordinated Universal Time)

1 33056U 08030B 26251.16828889 .00000126 00000+0 00000+0 0 9991 2 33056 0.0358 84.3180 0004482 69.7046 295.7829 1.00270192 53180
UTC large
Height (km)
Speed (km/s)
/
Latitude / Longitude
Inclination (degrees)
Orbital Period (minutes)
Azimuth
Elevation
Range (km)
Doppler Factor

Next 0 passes for location: London (51.5072 / 0.1276)

No passes found over London.
TURKSAT 3A